Regional Weather Roundup
Issued by NWS Portland, ME

Home | Current Version | Previous Version | Text Only | Print | Product List | Glossary On
Versions: 1 2 3 4 5 6 7 8 9 10 11 12 13 14 15 16 17 18 19 20 21 22 23 24 25 26 27 28 29 30 31 32 33 34 35 36 37 38 39 40 41 42 43 44 45 46 47 48 49 50
000
ASUS41 KGYX 281210
RWRGYX
WEATHER ROUNDUP FOR MAINE AND NEW HAMPSHIRE
NATIONAL WEATHER SERVICE GRAY ME
800 AM EDT SUN AUG 28 2016

MEZ002-005-006-010-012-015-018-020-021-024-026-027-029-281300-
MAINE

CITY           SKY/WX    TMP DP  RH WIND       PRES   REMARKS
PORTLAND       MOSUNNY   67  62  84 CALM      30.30S
6HR MIN TEMP:  59; 6HR MAX TEMP:  67;

SANFORD        SUNNY     65  61  87 CALM      30.31R
BAR HARBOR     SUNNY     63  58  83 CALM      30.32S
WISCASSET      SUNNY     65  59  81 CALM      30.31S
6HR MIN TEMP:  55; 6HR MAX TEMP:  65;

ROCKLAND       SUNNY     65  59  81 E5        30.31S
FRYEBURG       PTSUNNY   62  60  93 CALM      30.31R
6HR MIN TEMP:  55; 6HR MAX TEMP:  62;

LEWISTONAUBURN MOSUNNY   62  59  90 CALM      30.31R
AUGUSTA        MOSUNNY   63  58  83 SE3       30.30S
6HR MIN TEMP:  58; 6HR MAX TEMP:  63;

WATERVILLE     CLOUDY    60  59  96 CALM      30.28S
BANGOR         PTSUNNY   62  57  83 CALM      30.30F
6HR MIN TEMP:  52; 6HR MAX TEMP:  62;

GREENVILLE       N/A     60  49  66 VRB5      30.29R
6HR MIN TEMP:  58; 6HR MAX TEMP:  61;

MILLINOCKET    CLOUDY    56  53  90 CALM      30.32R
6HR MIN TEMP:  51; 6HR MAX TEMP:  56;

HOULTON        CLOUDY    58  58 100 CALM      30.29S
6HR MIN TEMP:  48; 6HR MAX TEMP:  58;

PRESQUE ISLE   NOT AVBL
FRENCHVILLE    MOSUNNY   54  48  80 SE6       30.28F
6HR MIN TEMP:  51; 6HR MAX TEMP:  54;

CARIBOU        CLOUDY    56  52  86 CALM      30.29F
6HR MIN TEMP:  53; 6HR MAX TEMP:  56;

$$

NHZ002-005-008-009-011-012-014-281300-
NEW HAMPSHIRE

CITY           SKY/WX    TMP DP  RH WIND       PRES   REMARKS
PORTSMOUTH     MOSUNNY   69  62  80 VRB1      30.29R
ROCHESTER      SUNNY     67  59  75 CALM      30.30R
6HR MIN TEMP:  58; 6HR MAX TEMP:  67;

NASHUA         SUNNY     67  62  84 CALM      30.30R
MANCHESTER     MOSUNNY   68  60  75 SW3       30.29R
6HR MIN TEMP:  65; 6HR MAX TEMP:  71;

CONCORD        SUNNY     68  60  75 CALM      30.30R
6HR MIN TEMP:  58; 6HR MAX TEMP:  68;

LACONIA        SUNNY     67  62  84 CALM      30.30S
PLYMOUTH       FAIR      60  60  97 CALM      30.30S
BERLIN         CLOUDY    59  55  87 CALM      30.30S
6HR MIN TEMP:  53; 6HR MAX TEMP:  59;

WHITEFIELD     CLOUDY    60  56  86 CALM      30.28S
6HR MIN TEMP:  54; 6HR MAX TEMP:  60;

JAFFREY        SUNNY     67  60  78 SW3       30.32R
6HR MIN TEMP:  57; 6HR MAX TEMP:  67;

KEENE          MOSUNNY   62  61  96 CALM      30.30S
LEBANON        FOG       62  61  96 CALM      30.28S VSB 1
6HR MIN TEMP:  60; 6HR MAX TEMP:  63;

MT WASHINGTON  FOG       50  50 100 SW22        N/A  VSB 3/16
6HR MIN TEMP:  48; 6HR MAX TEMP:  50;

$$

VTZ005-007-008-281300-
VERMONT

CITY           SKY/WX    TMP DP  RH WIND       PRES   REMARKS
ST JOHNSBURY     N/A     60  55  83 MISG      30.26S
MONTPELIER     CLOUDY    60  59  96 CALM      30.30F
BURLINGTON     CLOUDY    68  61  78 CALM      30.21S
$$

MAZ007-012-024-CTZ003-RIZ002-NYZ038-NYZ072-281300-
SOUTHERN NEW ENGLAND AND NY

CITY           SKY/WX    TMP DP  RH WIND       PRES   REMARKS
BOSTON         PTSUNNY   70  65  84 SE5       30.29S
WORCESTER      SUNNY     66  60  81 SW7       30.32R
NANTUCKET      SUNNY     71  64  78 N6        30.28R
PROVIDENCE     MOSUNNY   69  63  81 CALM      30.30R
HARTFORD       PTSUNNY   69  65  86 S5        30.29S
ALBANY         MOSUNNY   68  64  87 SW3       30.25S
NEW YORK CITY  PTSUNNY   76  69  79 E6        30.26R
$$

ANZ081-ANZ082-ANZ150-NHZ014-MEZ023>029-281300-
COASTAL MARINE OBSERVATIONS

STATION/POSITION TIME  TEMP    WIND        PRES    WAVE
                       AIR SEA DIR/SP/G            HT/PER
                 (UTC) (F)     (DEG/KT/KT) (MB)    (FT/S)
MOUNT DESERT ROC 1200   62      90/  3/  4 1026.6R
MATINICUS ROCK   1200   66     130/ 12/ 13 1025.9F
ISLE OF SHOALS   1200   69     150/  6/  7 1025.6R
JEFFREYS LEDGE   1108      68                N/A     1/ 9
CASHES LEDGE BUO 1150   69 69  100/  8/  8 1026.2R   1/ 9
GEORGES BANK BUO 1150   69 67              1023.3R   2/10
$$

.............KEY..............
   WCI - WIND CHILL
   TC  - TEMPERATURE IN CELSIUS
   VSB - VISIBILITY IN MILES
   HX  - HEAT INDEX
   FAIR- INDICATES FEW OR NO CLOUDS BELOW 12,000 FT, WITH NO
         SIGNIFICANT WEATHER AND/OR OBSTRUCTIONS TO VISIBILITY.






USA.gov is the U.S. government's official web portal to all federal, state and local government web resources and services.